ACA7089 CYUL-KBUF

Flight info

Callsign ACA7089
Flight time 1h 8m
Altitude 32000
Route FAWNS DCT BUGSY DCT SYR DCT ROC DCT EHMAN
Aircraft A320/M-SDE3FGHIRWY/LB1

Departure

Time 2026-05-06 14:18
Airport Montreal / Pierre Elliott Trudeau International Airport (CYUL)

Arrival

Time 2026-05-06 15:26
Airport Buffalo Niagara International Airport (KBUF)
Time Latitude Longitude Altitude Speed Heading
2026-05-06 13:59 45.45484 -73.75584 104 ft 0 kts 59°
2026-05-06 14:04 45.45483 -73.75586 104 ft 1 kts 59°
2026-05-06 14:04 45.45476 -73.75604 104 ft 2 kts 59°
2026-05-06 14:04 45.45468 -73.75623 104 ft 2 kts 59°
2026-05-06 14:05 45.45460 -73.75641 104 ft 2 kts 59°
2026-05-06 14:05 45.45455 -73.75654 104 ft 0 kts 59°
2026-05-06 14:05 45.45447 -73.75668 104 ft 1 kts 31°
2026-05-06 14:05 45.45435 -73.75673 104 ft 1 kts 352°
2026-05-06 14:06 45.45423 -73.75666 104 ft 1 kts 313°
2026-05-06 14:06 45.45418 -73.75656 104 ft 1 kts 284°
2026-05-06 14:06 45.45417 -73.75645 104 ft 1 kts 295°
2026-05-06 14:06 45.45416 -73.75643 104 ft 0 kts 296°
2026-05-06 14:08 45.45418 -73.75650 104 ft 1 kts 296°
2026-05-06 14:08 45.45428 -73.75676 104 ft 4 kts 300°
2026-05-06 14:08 45.45448 -73.75721 104 ft 6 kts 308°
2026-05-06 14:08 45.45490 -73.75757 104 ft 8 kts 345°
2026-05-06 14:09 45.45552 -73.75776 105 ft 10 kts 348°
2026-05-06 14:09 45.45630 -73.75798 105 ft 12 kts 349°
2026-05-06 14:09 45.45714 -73.75843 106 ft 13 kts 323°
2026-05-06 14:09 45.45789 -73.75939 106 ft 15 kts 317°
2026-05-06 14:10 45.45883 -73.76016 107 ft 16 kts 346°
2026-05-06 14:10 45.45992 -73.76040 107 ft 15 kts 357°
2026-05-06 14:10 45.46087 -73.76038 108 ft 11 kts 14°
2026-05-06 14:10 45.46121 -73.75936 108 ft 13 kts 87°
2026-05-06 14:11 45.46125 -73.75796 109 ft 15 kts 88°
2026-05-06 14:11 45.46131 -73.75640 109 ft 16 kts 88°
2026-05-06 14:11 45.46136 -73.75467 109 ft 18 kts 87°
2026-05-06 14:11 45.46141 -73.75281 109 ft 19 kts 88°
2026-05-06 14:12 45.46146 -73.75086 110 ft 19 kts 87°
2026-05-06 14:12 45.46154 -73.74890 110 ft 20 kts 87°
2026-05-06 14:12 45.46158 -73.74686 110 ft 20 kts 87°
2026-05-06 14:12 45.46128 -73.74509 110 ft 18 kts 99°
2026-05-06 14:13 45.46129 -73.74330 110 ft 18 kts 86°
2026-05-06 14:13 45.46133 -73.74144 110 ft 19 kts 87°
2026-05-06 14:13 45.46194 -73.73974 109 ft 20 kts 40°
2026-05-06 14:13 45.46301 -73.73834 110 ft 21 kts 43°
2026-05-06 14:14 45.46412 -73.73686 110 ft 22 kts 42°
2026-05-06 14:14 45.46527 -73.73536 111 ft 22 kts 43°
2026-05-06 14:14 45.46643 -73.73379 112 ft 23 kts 44°
2026-05-06 14:14 45.46762 -73.73222 113 ft 23 kts 42°
2026-05-06 14:15 45.46882 -73.73066 114 ft 23 kts 43°
2026-05-06 14:15 45.47002 -73.72910 116 ft 23 kts 42°
2026-05-06 14:15 45.47120 -73.72753 118 ft 23 kts 43°
2026-05-06 14:15 45.47238 -73.72599 120 ft 22 kts 42°
2026-05-06 14:16 45.47354 -73.72447 122 ft 22 kts 43°
2026-05-06 14:16 45.47467 -73.72298 125 ft 22 kts 43°
2026-05-06 14:16 45.47580 -73.72151 127 ft 21 kts 43°
2026-05-06 14:16 45.47686 -73.72010 130 ft 19 kts 41°
2026-05-06 14:17 45.47785 -73.71879 131 ft 18 kts 46°
2026-05-06 14:17 45.47779 -73.71734 133 ft 14 kts 136°
2026-05-06 14:17 45.47697 -73.71645 133 ft 15 kts 168°
2026-05-06 14:17 45.47549 -73.71799 131 ft 56 kts 222°
2026-05-06 14:18 45.47082 -73.72405 122 ft 123 kts 222°
2026-05-06 14:18 45.46333 -73.73392 254 ft 161 kts 222°
2026-05-06 14:18 45.45497 -73.74515 829 ft 167 kts 223°
2026-05-06 14:18 45.44679 -73.75594 1579 ft 160 kts 224°
2026-05-06 14:19 45.43841 -73.76657 2071 ft 168 kts 223°
2026-05-06 14:19 45.42923 -73.77801 2413 ft 186 kts 223°
2026-05-06 14:19 45.41805 -73.78904 2790 ft 206 kts 210°
2026-05-06 14:19 45.40463 -73.79839 3236 ft 224 kts 207°
2026-05-06 14:20 45.38997 -73.80817 3700 ft 242 kts 207°
2026-05-06 14:20 45.37431 -73.81885 4190 ft 258 kts 207°
2026-05-06 14:20 45.35807 -73.83017 4957 ft 264 kts 208°
2026-05-06 14:20 45.34179 -73.84165 5874 ft 263 kts 208°
2026-05-06 14:21 45.32562 -73.85316 6800 ft 262 kts 208°
2026-05-06 14:21 45.30951 -73.86467 7732 ft 261 kts 209°
2026-05-06 14:21 45.29352 -73.87609 8661 ft 259 kts 210°
2026-05-06 14:21 45.27761 -73.88748 9568 ft 258 kts 210°
2026-05-06 14:22 45.26183 -73.89876 10495 ft 256 kts 211°
2026-05-06 14:22 45.24570 -73.91042 11000 ft 269 kts 210°
2026-05-06 14:22 45.22855 -73.92284 11370 ft 286 kts 211°
2026-05-06 14:22 45.21034 -73.93594 11753 ft 301 kts 211°
2026-05-06 14:23 45.19150 -73.94944 12373 ft 307 kts 210°
2026-05-06 14:23 45.17254 -73.96300 13124 ft 307 kts 210°
2026-05-06 14:23 45.15343 -73.97665 13783 ft 311 kts 211°
2026-05-06 14:23 45.13410 -73.99046 14410 ft 314 kts 210°
2026-05-06 14:24 45.11466 -74.00433 15073 ft 316 kts 210°
2026-05-06 14:24 45.09501 -74.01832 15681 ft 319 kts 211°
2026-05-06 14:24 45.07518 -74.03247 16237 ft 322 kts 210°
2026-05-06 14:24 45.05515 -74.04676 16820 ft 325 kts 210°
2026-05-06 14:25 45.03493 -74.06116 17373 ft 328 kts 211°
2026-05-06 14:25 45.01445 -74.07525 17940 ft 331 kts 207°
2026-05-06 14:25 44.99270 -74.08652 18417 ft 337 kts 201°
2026-05-06 14:25 44.96977 -74.09433 18917 ft 343 kts 196°
2026-05-06 14:26 44.94608 -74.09939 19418 ft 347 kts 193°
2026-05-06 14:26 44.92214 -74.10404 19927 ft 349 kts 193°
2026-05-06 14:26 44.89809 -74.10861 20434 ft 351 kts 193°
2026-05-06 14:26 44.87386 -74.11317 20907 ft 353 kts 193°
2026-05-06 14:27 44.84939 -74.11778 21355 ft 356 kts 193°
2026-05-06 14:27 44.82481 -74.12240 21810 ft 358 kts 193°
2026-05-06 14:27 44.80008 -74.12706 22233 ft 361 kts 193°
2026-05-06 14:27 44.77514 -74.13175 22660 ft 363 kts 193°
2026-05-06 14:28 44.75022 -74.13726 23084 ft 362 kts 199°
2026-05-06 14:28 44.72677 -74.14906 23524 ft 358 kts 210°
2026-05-06 14:28 44.70577 -74.16732 23949 ft 356 kts 220°
2026-05-06 14:28 44.68744 -74.19046 24379 ft 356 kts 225°
2026-05-06 14:29 44.66965 -74.21455 24808 ft 357 kts 226°
2026-05-06 14:29 44.65178 -74.23888 25127 ft 361 kts 225°
2026-05-06 14:29 44.63366 -74.26356 25381 ft 366 kts 226°
2026-05-06 14:29 44.61536 -74.28852 25732 ft 369 kts 226°
2026-05-06 14:30 44.59699 -74.31354 26115 ft 370 kts 226°
2026-05-06 14:30 44.57857 -74.33864 26499 ft 371 kts 226°
2026-05-06 14:30 44.56013 -74.36376 26862 ft 372 kts 226°
2026-05-06 14:30 44.54156 -74.38905 27200 ft 374 kts 226°
2026-05-06 14:31 44.52287 -74.41438 27524 ft 375 kts 226°
2026-05-06 14:31 44.50418 -74.43978 27867 ft 376 kts 226°
2026-05-06 14:31 44.48542 -74.46521 28153 ft 378 kts 226°
2026-05-06 14:31 44.46655 -74.49081 28453 ft 380 kts 225°
2026-05-06 14:32 44.44760 -74.51652 28759 ft 381 kts 226°
2026-05-06 14:32 44.42858 -74.54220 29033 ft 382 kts 226°
2026-05-06 14:32 44.40949 -74.56801 29294 ft 383 kts 226°
2026-05-06 14:32 44.39033 -74.59385 29573 ft 384 kts 226°
2026-05-06 14:33 44.37123 -74.61967 29880 ft 383 kts 226°
2026-05-06 14:33 44.35215 -74.64538 30196 ft 382 kts 226°
2026-05-06 14:33 44.33300 -74.67112 30501 ft 382 kts 225°
2026-05-06 14:33 44.31389 -74.69690 30784 ft 383 kts 225°
2026-05-06 14:34 44.29475 -74.72259 31062 ft 383 kts 225°
2026-05-06 14:34 44.27566 -74.74825 31343 ft 382 kts 225°
2026-05-06 14:34 44.25652 -74.77393 31579 ft 383 kts 225°
2026-05-06 14:34 44.23732 -74.79962 31748 ft 385 kts 225°
2026-05-06 14:35 44.21799 -74.82546 31916 ft 385 kts 225°
2026-05-06 14:35 44.19872 -74.85122 31922 ft 385 kts 225°
2026-05-06 14:35 44.16021 -74.90270 31926 ft 384 kts 225°
2026-05-06 14:36 44.12165 -74.95402 31918 ft 385 kts 225°
2026-05-06 14:36 44.08305 -75.00543 31920 ft 385 kts 225°
2026-05-06 14:37 44.04442 -75.05669 31919 ft 385 kts 225°
2026-05-06 14:37 44.00579 -75.10795 31921 ft 385 kts 225°
2026-05-06 14:38 43.96716 -75.15904 31924 ft 384 kts 225°
2026-05-06 14:38 43.92848 -75.21012 31932 ft 385 kts 225°
2026-05-06 14:39 43.88964 -75.26132 31927 ft 386 kts 225°
2026-05-06 14:39 43.85076 -75.31239 31936 ft 385 kts 225°
2026-05-06 14:40 43.81199 -75.36335 31933 ft 386 kts 225°
2026-05-06 14:40 43.77316 -75.41420 31930 ft 385 kts 225°
2026-05-06 14:41 43.73432 -75.46502 31923 ft 384 kts 226°
2026-05-06 14:41 43.69551 -75.51576 31924 ft 384 kts 225°
2026-05-06 14:42 43.65668 -75.56632 31917 ft 385 kts 225°
2026-05-06 14:42 43.61777 -75.61691 31908 ft 386 kts 225°
2026-05-06 14:43 43.57882 -75.66749 31917 ft 385 kts 225°
2026-05-06 14:43 43.53994 -75.71782 31912 ft 384 kts 225°
2026-05-06 14:44 43.50115 -75.76802 31924 ft 384 kts 225°
2026-05-06 14:45 43.44312 -75.84298 31931 ft 381 kts 225°
2026-05-06 14:45 43.40441 -75.89281 31942 ft 381 kts 225°
2026-05-06 14:46 43.36577 -75.94242 31937 ft 382 kts 226°
2026-05-06 14:46 43.32713 -75.99203 31953 ft 380 kts 226°
2026-05-06 14:47 43.28862 -76.04140 31962 ft 379 kts 226°
2026-05-06 14:47 43.25011 -76.09056 31954 ft 379 kts 226°
2026-05-06 14:48 43.21350 -76.14223 31873 ft 377 kts 233°
2026-05-06 14:48 43.19844 -76.17105 31572 ft 371 kts 238°
2026-05-06 14:48 43.18565 -76.20166 31299 ft 373 kts 243°
2026-05-06 14:48 43.17509 -76.23398 31041 ft 373 kts 248°
2026-05-06 14:49 43.16696 -76.26759 30763 ft 374 kts 252°
2026-05-06 14:49 43.16133 -76.30231 30507 ft 376 kts 257°
2026-05-06 14:49 43.15831 -76.33789 30231 ft 380 kts 263°
2026-05-06 14:49 43.15706 -76.37398 29969 ft 381 kts 264°
2026-05-06 14:50 43.15598 -76.41020 29712 ft 383 kts 264°
2026-05-06 14:50 43.15498 -76.44655 29450 ft 383 kts 264°
2026-05-06 14:50 43.15403 -76.48278 29195 ft 382 kts 264°
2026-05-06 14:50 43.15307 -76.51892 28940 ft 381 kts 265°
2026-05-06 14:51 43.15213 -76.55499 28675 ft 379 kts 264°
2026-05-06 14:51 43.15120 -76.59094 28418 ft 380 kts 265°
2026-05-06 14:51 43.15026 -76.62690 28167 ft 379 kts 264°
2026-05-06 14:51 43.14929 -76.66284 27904 ft 378 kts 264°
2026-05-06 14:52 43.14833 -76.69873 27655 ft 376 kts 264°
2026-05-06 14:52 43.14733 -76.73443 27403 ft 376 kts 264°
2026-05-06 14:52 43.14637 -76.77004 27134 ft 375 kts 264°
2026-05-06 14:52 43.14541 -76.80549 26881 ft 374 kts 265°
2026-05-06 14:53 43.14442 -76.84096 26636 ft 373 kts 264°
2026-05-06 14:53 43.14341 -76.87636 26376 ft 374 kts 264°
2026-05-06 14:53 43.14244 -76.91170 26126 ft 373 kts 264°
2026-05-06 14:53 43.14141 -76.94705 25878 ft 373 kts 265°
2026-05-06 14:54 43.14034 -76.98239 25615 ft 372 kts 265°
2026-05-06 14:54 43.13933 -77.01765 25362 ft 371 kts 265°
2026-05-06 14:54 43.13828 -77.05281 25099 ft 371 kts 265°
2026-05-06 14:54 43.13722 -77.08792 24852 ft 369 kts 265°
2026-05-06 14:55 43.13617 -77.12293 24612 ft 369 kts 265°
2026-05-06 14:55 43.13509 -77.15789 24360 ft 369 kts 265°
2026-05-06 14:55 43.13400 -77.19296 24121 ft 369 kts 265°
2026-05-06 14:55 43.13291 -77.22784 23872 ft 368 kts 266°
2026-05-06 14:56 43.13181 -77.26268 23625 ft 367 kts 266°
2026-05-06 14:56 43.13071 -77.29756 23377 ft 367 kts 266°
2026-05-06 14:56 43.12960 -77.33228 23123 ft 365 kts 266°
2026-05-06 14:56 43.12850 -77.36666 22648 ft 361 kts 266°
2026-05-06 14:57 43.12740 -77.40078 21987 ft 360 kts 266°
2026-05-06 14:57 43.12628 -77.43472 21375 ft 357 kts 266°
2026-05-06 14:57 43.12516 -77.46841 20793 ft 354 kts 265°
2026-05-06 14:57 43.12403 -77.50179 20196 ft 352 kts 266°
2026-05-06 14:58 43.12288 -77.53500 19606 ft 350 kts 266°
2026-05-06 14:58 43.12175 -77.56799 19046 ft 347 kts 265°
2026-05-06 14:58 43.12062 -77.60060 18502 ft 344 kts 266°
2026-05-06 14:58 43.11950 -77.63295 17975 ft 340 kts 266°
2026-05-06 14:59 43.11881 -77.66511 17449 ft 338 kts 267°
2026-05-06 14:59 43.11919 -77.69715 16949 ft 336 kts 269°
2026-05-06 14:59 43.12035 -77.72887 16421 ft 334 kts 270°
2026-05-06 14:59 43.12152 -77.76046 15909 ft 332 kts 269°
2026-05-06 15:00 43.12268 -77.79174 15400 ft 330 kts 269°
2026-05-06 15:00 43.12382 -77.82281 14914 ft 327 kts 270°
2026-05-06 15:00 43.12495 -77.85360 14417 ft 324 kts 269°
2026-05-06 15:00 43.12605 -77.88418 13930 ft 321 kts 270°
2026-05-06 15:01 43.12715 -77.91445 13423 ft 319 kts 270°
2026-05-06 15:01 43.12824 -77.94459 12887 ft 318 kts 269°
2026-05-06 15:01 43.12932 -77.97455 12362 ft 316 kts 269°
2026-05-06 15:01 43.13038 -78.00436 11817 ft 314 kts 269°
2026-05-06 15:02 43.13141 -78.03405 11256 ft 313 kts 270°
2026-05-06 15:02 43.13247 -78.06371 10734 ft 311 kts 269°
2026-05-06 15:02 43.13350 -78.09286 10376 ft 302 kts 269°
2026-05-06 15:02 43.13450 -78.12094 10167 ft 290 kts 269°
2026-05-06 15:03 43.13543 -78.14796 9964 ft 279 kts 269°
2026-05-06 15:03 43.13630 -78.17398 9771 ft 269 kts 269°
2026-05-06 15:03 43.13713 -78.19906 9573 ft 260 kts 269°
2026-05-06 15:03 43.13793 -78.22350 9253 ft 257 kts 269°
2026-05-06 15:04 43.13871 -78.24780 8839 ft 256 kts 270°
2026-05-06 15:04 43.13952 -78.27208 8425 ft 256 kts 269°
2026-05-06 15:04 43.14031 -78.29636 8056 ft 255 kts 270°
2026-05-06 15:04 43.14097 -78.32061 7983 ft 255 kts 267°
2026-05-06 15:05 43.13854 -78.34458 7983 ft 255 kts 254°
2026-05-06 15:05 43.13205 -78.36712 7979 ft 255 kts 242°
2026-05-06 15:05 43.12200 -78.38715 7978 ft 256 kts 232°
2026-05-06 15:05 43.10871 -78.40315 7909 ft 255 kts 215°
2026-05-06 15:06 43.09327 -78.41501 7525 ft 257 kts 211°
2026-05-06 15:06 43.07745 -78.42628 7099 ft 257 kts 210°
2026-05-06 15:06 43.06158 -78.43759 6651 ft 259 kts 210°
2026-05-06 15:06 43.04554 -78.44888 6221 ft 260 kts 210°
2026-05-06 15:07 43.02949 -78.46003 5990 ft 258 kts 210°
2026-05-06 15:07 43.01339 -78.47124 5983 ft 260 kts 210°
2026-05-06 15:07 42.99722 -78.48250 5978 ft 261 kts 210°
2026-05-06 15:07 42.98109 -78.49371 5978 ft 260 kts 210°
2026-05-06 15:08 42.96496 -78.50502 5979 ft 261 kts 210°
2026-05-06 15:08 42.94880 -78.51633 5982 ft 261 kts 210°
2026-05-06 15:08 42.93265 -78.52765 5976 ft 260 kts 210°
2026-05-06 15:08 42.91655 -78.53891 5975 ft 260 kts 210°
2026-05-06 15:09 42.90042 -78.55022 5979 ft 260 kts 210°
2026-05-06 15:09 42.88426 -78.56147 5978 ft 260 kts 210°
2026-05-06 15:09 42.86811 -78.57269 5977 ft 261 kts 210°
2026-05-06 15:09 42.85190 -78.58385 5976 ft 261 kts 210°
2026-05-06 15:10 42.83565 -78.59503 5970 ft 262 kts 210°
2026-05-06 15:10 42.83538 -78.59521 5970 ft 262 kts 210°
2026-05-06 15:14 42.83211 -78.59746 5974 ft 262 kts 210°
2026-05-06 15:15 42.81586 -78.60865 5974 ft 262 kts 210°
2026-05-06 15:15 42.79959 -78.61987 5972 ft 262 kts 210°
2026-05-06 15:15 42.78334 -78.63116 5974 ft 263 kts 210°
2026-05-06 15:15 42.76708 -78.64247 5973 ft 263 kts 210°
2026-05-06 15:16 42.75082 -78.65381 5972 ft 262 kts 209°
2026-05-06 15:16 42.73455 -78.66514 5972 ft 263 kts 210°
2026-05-06 15:16 42.71827 -78.67650 5971 ft 263 kts 210°
2026-05-06 15:16 42.70199 -78.68777 5973 ft 263 kts 210°
2026-05-06 15:17 42.68573 -78.69895 5976 ft 262 kts 210°
2026-05-06 15:17 42.66951 -78.71013 5971 ft 261 kts 210°
2026-05-06 15:17 42.65475 -78.72374 5789 ft 254 kts 224°
2026-05-06 15:17 42.64223 -78.74067 5372 ft 256 kts 229°
2026-05-06 15:18 42.63035 -78.75857 4959 ft 255 kts 236°
2026-05-06 15:18 42.62456 -78.78048 4762 ft 251 kts 270°
2026-05-06 15:18 42.62829 -78.80345 4639 ft 253 kts 296°
2026-05-06 15:18 42.63862 -78.82265 4513 ft 253 kts 310°
2026-05-06 15:19 42.65049 -78.84030 4385 ft 253 kts 311°
2026-05-06 15:19 42.66230 -78.85801 4250 ft 252 kts 311°
2026-05-06 15:19 42.67395 -78.87577 4124 ft 252 kts 310°
2026-05-06 15:19 42.68549 -78.89366 3998 ft 251 kts 309°
2026-05-06 15:20 42.69693 -78.91151 3980 ft 251 kts 309°
2026-05-06 15:20 42.70841 -78.92946 3980 ft 251 kts 310°
2026-05-06 15:20 42.71988 -78.94733 3977 ft 252 kts 313°
2026-05-06 15:20 42.73452 -78.96020 3969 ft 255 kts 341°
2026-05-06 15:21 42.75224 -78.96158 3976 ft 261 kts 10°
2026-05-06 15:21 42.76871 -78.95235 3979 ft 252 kts 31°
2026-05-06 15:21 42.78199 -78.93792 3979 ft 238 kts 40°
2026-05-06 15:21 42.79365 -78.92289 3971 ft 224 kts 42°
2026-05-06 15:22 42.80443 -78.90844 3956 ft 211 kts 42°
2026-05-06 15:22 42.81468 -78.89474 3954 ft 200 kts 42°
2026-05-06 15:22 42.82448 -78.88177 3695 ft 195 kts 41°
2026-05-06 15:22 42.83415 -78.86906 3407 ft 192 kts 40°
2026-05-06 15:23 42.84370 -78.85654 3126 ft 187 kts 41°
2026-05-06 15:23 42.85272 -78.84469 2878 ft 173 kts 42°
2026-05-06 15:23 42.86110 -78.83369 2629 ft 162 kts 42°
2026-05-06 15:23 42.86884 -78.82353 2405 ft 148 kts 42°
2026-05-06 15:24 42.87594 -78.81422 2199 ft 137 kts 43°
2026-05-06 15:24 42.88278 -78.80526 2035 ft 136 kts 44°
2026-05-06 15:24 42.88958 -78.79635 1866 ft 135 kts 45°
2026-05-06 15:24 42.89633 -78.78750 1691 ft 134 kts 45°
2026-05-06 15:25 42.90303 -78.77870 1513 ft 133 kts 45°
2026-05-06 15:25 42.90971 -78.76993 1330 ft 133 kts 45°
2026-05-06 15:25 42.91635 -78.76121 1148 ft 132 kts 45°
2026-05-06 15:25 42.92297 -78.75252 963 ft 132 kts 45°
2026-05-06 15:26 42.92953 -78.74382 796 ft 131 kts 45°
2026-05-06 15:26 42.93590 -78.73550 704 ft 117 kts 44°
2026-05-06 15:26 42.94054 -78.72934 707 ft 68 kts 41°
2026-05-06 15:26 42.94192 -78.72656 708 ft 20 kts 124°
2026-05-06 15:27 42.94104 -78.72666 708 ft 13 kts 222°
2026-05-06 15:27 42.94029 -78.72767 708 ft 16 kts 225°
2026-05-06 15:27 42.93939 -78.72885 707 ft 19 kts 222°
2026-05-06 15:27 42.93835 -78.72974 707 ft 15 kts 175°
2026-05-06 15:28 42.93742 -78.73022 706 ft 15 kts 226°
2026-05-06 15:28 42.93657 -78.73097 705 ft 12 kts 155°
2026-05-06 15:28 42.93629 -78.73062 705 ft 0 kts 130°